| time (UTC) | temp F | wind direction | speed MPH | gust MPH | rain 1hr in | rain 24hr in | rain mn in | humidity % | barometer mb |
| 20260505065925 | 69 | 32 | 1.0 | 1.0 | 0.00 | 0.00 | 0.00 | 71 | 997.8 |
| 20260505064924 | 69 | 30 | 1.0 | 5.0 | 0.00 | 0.00 | 0.00 | 69 | 997.5 |
| 20260505063925 | 69 | 25 | 3.0 | 7.0 | 0.00 | 0.00 | 0.00 | 70 | 997.7 |
| 20260505062924 | 70 | 43 | 3.0 | 6.0 | 0.00 | 0.00 | 0.00 | 70 | 997.3 |
| 20260505061925 | 70 | 26 | 1.0 | 3.0 | 0.00 | 0.00 | 0.00 | 69 | 997.2 |
| 20260505060925 | 70 | 55 | 1.0 | 2.0 | 0.00 | 0.00 | 0.00 | 69 | 997.0 |
| 20260505055925 | 70 | 206 | 2.0 | 3.0 | 0.00 | 0.00 | 0.00 | 69 | 996.8 |
| 20260505054924 | 70 | 181 | 5.0 | 9.0 | 0.00 | 0.00 | 0.00 | 68 | 996.8 |
| 20260505053925 | 71 | 188 | 8.0 | 13.0 | 0.00 | 0.00 | 0.00 | 68 | 996.7 |
| 20260505052924 | 71 | 188 | 9.0 | 14.0 | 0.00 | 0.00 | 0.00 | 68 | 996.8 |
| 20260505051925 | 71 | 173 | 5.0 | 7.0 | 0.00 | 0.00 | 0.00 | 65 | 996.7 |
| 20260505050924 | 71 | 171 | 7.0 | 14.0 | 0.00 | 0.00 | 0.00 | 64 | 996.5 |
| 20260505040924 | 71 | 165 | 0.0 | 3.0 | 0.00 | 0.00 | 0.00 | 69 | 996.5 |
| 20260505035923 | 72 | 183 | 1.0 | 3.0 | 0.00 | 0.00 | 0.00 | 68 | 996.6 |
| 20260505034925 | 73 | 179 | 5.0 | 9.0 | 0.00 | 0.00 | 0.00 | 67 | 996.6 |
| 20260505033924 | 73 | 194 | 7.0 | 10.0 | 0.00 | 0.00 | 0.00 | 66 | 996.3 |
| 20260505032923 | 74 | 176 | 3.0 | 6.0 | 0.00 | 0.00 | 0.00 | 65 | 996.6 |
| 20260505031924 | 74 | 196 | 2.0 | 3.0 | 0.00 | 0.00 | 0.00 | 64 | 997.0 |
| 20260505030923 | 74 | 188 | 6.0 | 10.0 | 0.00 | 0.00 | 0.00 | 63 | 996.9 |
| 20260505025924 | 74 | 178 | 3.0 | 6.0 | 0.00 | 0.00 | 0.00 | 63 | 997.1 |
| 20260505024923 | 75 | 188 | 5.0 | 6.0 | 0.00 | 0.00 | 0.00 | 62 | 997.3 |
| 20260505023924 | 75 | 187 | 6.0 | 9.0 | 0.00 | 0.00 | 0.00 | 61 | 997.1 |
| 20260505022924 | 75 | 192 | 3.0 | 5.0 | 0.00 | 0.00 | 0.00 | 61 | 997.2 |
| 20260505021925 | 75 | 184 | 6.0 | 10.0 | 0.00 | 0.00 | 0.00 | 60 | 997.1 |
| 20260505020924 | 75 | 195 | 5.0 | 9.0 | 0.00 | 0.00 | 0.00 | 59 | 997.6 |
| 20260505015925 | 76 | 194 | 2.0 | 5.0 | 0.00 | 0.00 | 0.00 | 59 | 997.5 |
| 20260505014923 | 76 | 176 | 6.0 | 6.0 | 0.00 | 0.00 | 0.00 | 58 | 996.9 |
| 20260505013925 | 76 | 192 | 5.0 | 6.0 | 0.00 | 0.00 | 0.00 | 56 | 996.9 |
| 20260505012924 | 77 | 216 | 2.0 | 3.0 | 0.00 | 0.00 | 0.00 | 55 | 996.8 |
| 20260505011925 | 77 | 181 | 2.0 | 7.0 | 0.00 | 0.00 | 0.00 | 54 | 996.8 |
| 20260505010924 | 77 | 165 | 3.0 | 6.0 | 0.00 | 0.00 | 0.00 | 53 | 996.7 |
| 20260505005925 | 78 | 205 | 5.0 | 7.0 | 0.00 | 0.00 | 0.00 | 53 | 996.4 |
| 20260505004924 | 78 | 174 | 5.0 | 6.0 | 0.00 | 0.00 | 0.00 | 52 | 996.3 |
| 20260505003925 | 79 | 173 | 3.0 | 5.0 | 0.00 | 0.00 | 0.00 | 51 | 996.6 |
| 20260505002924 | 79 | 184 | 2.0 | 6.0 | 0.00 | 0.00 | 0.00 | 50 | 996.5 |
| 20260505001924 | 80 | 178 | 5.0 | 6.0 | 0.00 | 0.00 | 0.00 | 48 | 996.5 |
| 20260505000925 | 80 | 186 | 3.0 | 5.0 | 0.00 | 0.00 | 0.00 | 48 | 996.5 |
| 20260504235923 | 80 | 177 | 5.0 | 6.0 | 0.00 | 0.00 | 0.00 | 47 | 996.8 |
| 20260504234924 | 80 | 190 | 3.0 | 6.0 | 0.00 | 0.00 | 0.00 | 47 | 996.8 |
| 20260504233924 | 80 | 181 | 3.0 | 12.0 | 0.00 | 0.00 | 0.00 | 47 | 996.8 |
| 20260504232925 | 80 | 192 | 3.0 | 7.0 | 0.00 | 0.00 | 0.00 | 46 | 996.9 |
| 20260504231924 | 81 | 196 | 5.0 | 7.0 | 0.00 | 0.00 | 0.00 | 45 | 996.8 |
| 20260504230924 | 81 | 194 | 6.0 | 12.0 | 0.00 | 0.00 | 0.00 | 44 | 996.7 |
| 20260504225925 | 82 | 249 | 1.0 | 9.0 | 0.00 | 0.00 | 0.00 | 44 | 996.7 |
| 20260504224924 | 82 | 196 | 2.0 | 10.0 | 0.00 | 0.00 | 0.00 | 45 | 996.7 |
| 20260504223924 | 82 | 204 | 5.0 | 7.0 | 0.00 | 0.00 | 0.00 | 42 | 996.7 |
| 20260504222923 | 82 | 211 | 3.0 | 10.0 | 0.00 | 0.00 | 0.00 | 43 | 996.7 |
| 20260504221924 | 82 | 268 | 3.0 | 5.0 | 0.00 | 0.00 | 0.00 | 43 | 996.7 |
| 20260504220923 | 82 | 207 | 5.0 | 10.0 | 0.00 | 0.00 | 0.00 | 42 | 996.8 |
| 20260504215924 | 83 | 233 | 7.0 | 7.0 | 0.00 | 0.00 | 0.00 | 40 | 996.8 |
| 20260504214923 | 83 | 238 | 2.0 | 10.0 | 0.00 | 0.00 | 0.00 | 41 | 996.9 |
| 20260504213924 | 83 | 177 | 7.0 | 16.0 | 0.00 | 0.00 | 0.00 | 40 | 997.0 |
| 20260504212923 | 83 | 187 | 7.0 | 14.0 | 0.00 | 0.00 | 0.00 | 41 | 997.1 |
| 20260504211924 | 83 | 189 | 3.0 | 7.0 | 0.00 | 0.00 | 0.00 | 41 | 997.1 |
| 20260504210923 | 83 | 192 | 7.0 | 13.0 | 0.00 | 0.00 | 0.00 | 40 | 997.2 |
| 20260504205924 | 83 | 190 | 6.0 | 8.0 | 0.00 | 0.00 | 0.00 | 40 | 997.3 |
| 20260504204925 | 84 | 189 | 5.0 | 10.0 | 0.00 | 0.00 | 0.00 | 41 | 997.4 |
| 20260504203924 | 84 | 182 | 7.0 | 10.0 | 0.00 | 0.00 | 0.00 | 39 | 997.5 |
| 20260504202923 | 85 | 270 | 3.0 | 2.0 | 0.00 | 0.00 | 0.00 | 38 | 997.5 |
| 20260504201924 | 85 | 195 | 7.0 | 12.0 | 0.00 | 0.00 | 0.00 | 39 | 997.5 |
| 20260504200923 | 85 | 187 | 6.0 | 7.0 | 0.00 | 0.00 | 0.00 | 38 | 997.7 |
| 20260504195924 | 84 | 260 | 1.0 | 3.0 | 0.00 | 0.00 | 0.00 | 39 | 997.7 |
| 20260504194924 | 85 | 285 | 1.0 | 2.0 | 0.00 | 0.00 | 0.00 | 37 | 998.0 |
| 20260504193925 | 85 | 210 | 2.0 | 13.0 | 0.00 | 0.00 | 0.00 | 38 | 998.0 |
| 20260504192924 | 85 | 229 | 2.0 | 5.0 | 0.00 | 0.00 | 0.00 | 39 | 998.0 |
| 20260504191925 | 84 | 211 | 7.0 | 10.0 | 0.00 | 0.00 | 0.00 | 38 | 998.2 |
| 20260504190923 | 84 | 262 | 1.0 | 2.0 | 0.00 | 0.00 | 0.00 | 40 | 998.2 |
| 20260504185924 | 84 | 209 | 1.0 | 3.0 | 0.00 | 0.00 | 0.00 | 41 | 998.4 |
| 20260504184923 | 83 | 177 | 6.0 | 10.0 | 0.00 | 0.00 | 0.00 | 40 | 998.5 |
| 20260504183924 | 83 | 267 | 1.0 | 2.0 | 0.00 | 0.00 | 0.00 | 39 | 998.5 |
| 20260504182923 | 83 | 218 | 2.0 | 9.0 | 0.00 | 0.00 | 0.00 | 40 | 998.6 |
| 20260504181924 | 82 | 279 | 1.0 | 1.0 | 0.00 | 0.00 | 0.00 | 40 | 998.8 |
| 20260504180925 | 81 | 290 | 2.0 | 3.0 | 0.00 | 0.00 | 0.00 | 40 | 999.1 |
| 20260504175923 | 81 | 288 | 1.0 | 2.0 | 0.00 | 0.00 | 0.00 | 42 | 999.2 |
| 20260504174924 | 80 | 287 | 2.0 | 2.0 | 0.00 | 0.00 | 0.00 | 42 | 999.2 |
| 20260504173923 | 80 | 281 | 1.0 | 1.0 | 0.00 | 0.00 | 0.00 | 42 | 999.2 |
| 20260504172923 | 79 | 263 | 1.0 | 2.0 | 0.00 | 0.00 | 0.00 | 42 | 999.3 |
| 20260504171924 | 79 | 204 | 2.0 | 7.0 | 0.00 | 0.00 | 0.00 | 43 | 999.3 |
| 20260504170923 | 78 | 292 | 1.0 | 2.0 | 0.00 | 0.00 | 0.00 | 43 | 999.3 |
| 20260504150926 | 71 | 257 | 1.0 | 3.0 | 0.00 | 0.00 | 0.00 | 53 | 1000.1 |
| 20260504140925 | 67 | 283 | 1.0 | 1.0 | 0.00 | 0.00 | 0.00 | 56 | 1000.6 |
| 20260504081925 | 67 | 242 | 3.0 | 6.0 | 0.00 | 0.00 | 0.00 | 45 | 1001.5 |
| 20260504080924 | 68 | 228 | 2.0 | 3.0 | 0.00 | 0.00 | 0.00 | 45 | 1001.6 |